Vertical_Velocity
4 -13 -25 19 5 -4 -3 10 14 11 -2 -10 5 5 -2 2 -4 -2 4 5 0 -2 0 -1 -2 -1 2 3 -0 1 2 -2 -3 -4 -3 -2 0 1 2 1 1 -0 1 1
9 1 -0 9 4 6 7 3 -4 2 -5 -5 1 -1 4 -9 -2 -1 0 -2 -2 -3 -1 -1 -2 -0 1 -1 0 1 -0 -2 -0 0 0 -0 -1 -4 -3 -1 0 -0 -0 -1
32 0 -0 3 1 -1 -3 0 -1 5 -1 -11 -3 -4 -7 -3 0 1 -0 1 -2 -2 -1 -1 0 2 -2 0 -1 -3 -4 -2 -2 1 3 2 1 1 1 -2 -2 -4 -3 -4
-0 -0 3 8 5 -3 0 4 -3 -1 -3 -3 -2 -10 -4 4 3 -5 -2 -1 -2 -5 -1 2 3 1 1 1 -2 -3 -2 -1 -2 -1 -5 -3 1 3 2 1 1 2 -4 -2
-1 -4 -1 -2 9 -1 9 -0 2 -1 -5 -0 -5 -17 10 -0 -8 2 5 3 -0 -0 -2 1 2 4 3 0 -3 -2 -2 -1 -1 -2 -1 -2 -2 -2 -2 -1 2 1 1 -1
-0 -1 -1 9 -5 1 -0 -1 -1 0 2 -18 7 -7 5 -15 9 2 -4 2 1 -4 -2 -0 3 -0 0 -2 -1 -1 -2 -1 1 -0 0 -2 -1 -2 1 -0 -1 -0 1 3
7 6 5 -1 -5 -1 -2 1 -4 -2 -11 -14 8 -12 12 -5 1 -0 -1 -5 -3 -6 -3 4 -2 -0 3 -0 -2 -1 0 -1 1 1 -2 -1 2 1 0 0 1 2 2 3
-4 -13 -5 -5 -4 7 6 -3 3 3 -2 14 7 -27 -3 4 1 -2 -3 -0 1 0 2 -0 -3 2 1 -0 -0 1 -0 -1 -1 -1 0 1 -1 -1 -1 -1 -2 -2 -1 1
-1 -2 -2 -1 3 0 2 -9 -1 -4 -3 -5 -6 -13 -3 10 1 3 5 5 2 -0 -0 -3 -0 -1 -1 -1 -1 -2 -1 -2 -0 2 0 -2 -1 2 2 0 1 0 -2 1
-1 -1 -1 -0 4 -1 -5 -0 -2 -3 -5 -5 -5 -5 -9 7 6 4 5 5 1 -2 4 1 -3 -1 -0 -1 -2 -2 -4 -4 -2 1 -1 -0 0 1 1 1 -0 1 -1 -0
1 -0 -2 -0 -13 5 -0 -2 -6 5 -6 -6 -5 -4 0 5 3 4 5 -0 -4 3 3 -0 -0 3 2 -0 -3 -2 -1 -1 1 -2 -1 -0 -0 -1 -1 1 -1 -2 0 1
1 1 -1 3 3 0 -5 -2 -5 -9 -1 -4 -8 -2 4 6 5 -2 0 -1 -1 5 3 0 2 4 -1 -4 -1 1 0 1 -0 -2 0 0 -1 -1 -1 -1 -1 2 -2 -1
2 -1 -1 -3 -3 -5 -7 -0 3 -1 -1 -2 -7 8 -1 -2 1 -2 1 -1 6 2 -4 1 3 1 -1 -1 -0 -0 -1 2 -1 -1 1 0 -1 -1 -0 2 0 0 0 1
-3 -0 0 3 5 3 -1 3 -0 -2 -7 4 -1 3 5 2 2 4 1 -0 -2 -1 -4 -2 -0 2 -2 1 -2 -1 1 -1 -0 -0 -1 -1 -0 0 0 -2 -0 0 -2 -2
1 -0 -0 -2 -2 0 1 -0 -4 -5 2 -9 22 -5 1 -0 -3 -1 2 -2 -2 -2 1 1 2 2 -0 -5 2 2 -0 0 1 -1 0 1 -1 -1 -1 -1 -2 -2 -0 -0
0 0 -0 1 1 0 -1 -1 -2 -1 -7 -6 2 2 1 -2 4 1 -2 1 2 1 2 2 0 -1 -1 1 1 4 -0 1 0 -1 -1 -0 -1 -1 -2 -0 -0 1 1 -2
-0 -1 -1 0 -1 -2 -2 -1 -5 -2 -4 -1 -9 14 -4 1 3 4 -0 -2 0 1 -0 1 1 0 -1 1 2 4 1 -1 -1 -2 -0 0 -3 -0 1 -0 1 -2 -2 -1
-0 -0 -1 0 -2 -6 1 -1 -3 -5 -2 -0 -0 3 -1 3 -1 -2 0 1 1 -1 1 1 2 1 1 3 3 2 2 1 -0 -1 3 -5 2 1 1 -2 -2 -4 -3 -2
0 1 0 -1 1 -0 1 -0 -2 -4 1 -1 1 -1 -2 1 -1 -0 -0 1 1 1 2 2 2 2 1 3 4 2 0 -1 1 3 -4 4 -3 -3 -3 -3 -3 -2 -2 -3
-2 -1 -1 -0 -1 -1 2 -0 -0 2 4 2 -1 -1 -1 3 1 2 -4 -1 1 2 2 1 1 2 2 1 3 4 -2 2 2 -0 -2 0 -0 -3 -4 -2 -1 -2 -2 -1
-0 -2 1 -2 1 3 1 -0 1 -2 2 1 1 -1 5 2 -4 2 6 -0 -1 -2 -0 -2 1 2 2 0 0 -1 6 -1 1 -4 3 5 -6 -4 -4 2 -1 -2 -2 -2
1 1 -2 -0 1 -0 1 -1 -4 -3 -1 0 -1 0 2 -2 0 0 0 0 -1 1 0 0 1 -0 0 -1 1 5 1 1 -0 2 -1 -5 -1 -2 -2 -1 -2 -2 -2 -1
-0 -0 1 -2 -1 -1 -1 1 2 -1 3 2 -0 1 0 0 -1 -2 2 1 1 2 0 -1 0 0 -0 1 3 3 0 1 -1 -0 -3 -1 0 -3 -1 -1 -3 -1 -0 -1
1 -1 1 -3 0 0 2 0 0 1 0 2 0 -1 -2 0 -0 1 1 4 8 12 -2 3 3 3 2 1 -1 0 1 0 0 2 -3 2 -2 -2 -2 -1 -2 -2 -0 0
4 2 -2 -1 3 -1 0 -1 -1 -0 -0 -0 2 1 -0 -0 0 1 1 1 1 1 1 5 -0 -0 1 -0 1 -1 1 0 3 1 -1 1 1 -2 -3 -2 -0 -0 -1 -0
-10 -1 -4 5 -4 -8 -1 1 -2 -3 -3 -1 -0 -0 1 1 -0 -0 -1 -1 0 -0 2 -0 7 1 0 0 1 1 1 1 1 0 1 -1 1 -2 -3 -2 -2 -0 -1 -1
Height
5645 5656 5669 5679 5686 5694 5703 5709 5714 5720 5725 5731 5738 5740 5745 5752 5758 5766 5772 5778 5783 5789 5794 5798 5804 5808 5811 5815 5819 5822 5824 5824 5824 5825 5827 5829 5830 5830 5830 5830 5829 5828 5827 5826
5644 5658 5665 5675 5683 5689 5696 5703 5709 5715 5717 5723 5729 5735 5740 5746 5754 5760 5766 5771 5777 5782 5787 5792 5797 5801 5804 5807 5811 5814 5816 5817 5819 5820 5820 5822 5822 5821 5821 5821 5821 5820 5819 5817
5645 5656 5663 5670 5678 5687 5693 5701 5705 5712 5715 5720 5726 5731 5737 5746 5750 5755 5760 5765 5770 5776 5781 5786 5790 5793 5797 5800 5802 5804 5806 5809 5812 5814 5815 5815 5815 5815 5815 5813 5812 5811 5810 5809
5646 5655 5662 5670 5677 5685 5692 5696 5702 5707 5712 5718 5722 5727 5733 5738 5743 5747 5754 5759 5764 5769 5773 5778 5782 5786 5789 5792 5795 5796 5799 5801 5802 5804 5805 5807 5807 5808 5807 5806 5806 5804 5801 5798
5648 5654 5662 5669 5677 5683 5688 5693 5698 5703 5708 5712 5717 5720 5729 5731 5736 5744 5749 5753 5756 5760 5765 5770 5774 5778 5781 5783 5786 5788 5791 5793 5794 5795 5796 5797 5798 5799 5798 5797 5797 5795 5793 5791
5647 5654 5660 5666 5671 5678 5683 5689 5694 5697 5702 5706 5713 5715 5722 5727 5734 5735 5740 5746 5750 5753 5757 5762 5766 5770 5773 5775 5778 5780 5783 5785 5786 5786 5787 5789 5789 5789 5788 5787 5786 5785 5783 5781
5647 5653 5660 5664 5668 5674 5679 5685 5690 5695 5696 5704 5705 5705 5718 5720 5725 5728 5732 5736 5740 5744 5749 5754 5758 5762 5765 5767 5770 5772 5774 5776 5777 5778 5779 5780 5779 5779 5779 5777 5776 5774 5773 5771
5647 5653 5657 5663 5668 5675 5677 5683 5688 5689 5691 5697 5697 5700 5709 5716 5718 5721 5725 5729 5734 5738 5742 5745 5749 5753 5757 5760 5762 5764 5766 5768 5769 5769 5769 5770 5770 5769 5768 5767 5765 5764 5763 5761
5647 5653 5659 5661 5666 5671 5674 5679 5683 5684 5686 5690 5693 5699 5701 5706 5710 5714 5718 5722 5726 5730 5733 5737 5741 5744 5748 5751 5753 5755 5757 5759 5759 5760 5759 5760 5760 5760 5759 5758 5756 5754 5753 5751
5648 5653 5656 5659 5663 5667 5672 5675 5678 5679 5681 5683 5686 5689 5694 5698 5703 5705 5710 5714 5717 5721 5725 5727 5732 5735 5739 5742 5744 5746 5749 5750 5750 5750 5749 5750 5750 5749 5749 5747 5746 5745 5743 5741
5645 5648 5652 5655 5658 5662 5666 5669 5673 5675 5676 5677 5679 5682 5686 5689 5695 5699 5702 5704 5707 5714 5717 5720 5723 5727 5730 5732 5735 5737 5739 5739 5740 5740 5740 5739 5739 5739 5738 5737 5736 5735 5733 5731
5643 5646 5648 5652 5655 5658 5660 5663 5667 5668 5670 5671 5672 5675 5678 5682 5687 5691 5696 5699 5701 5706 5709 5713 5716 5719 5721 5723 5725 5728 5729 5729 5730 5730 5731 5730 5730 5729 5729 5729 5727 5725 5724 5721
5643 5644 5646 5649 5653 5653 5656 5661 5663 5664 5664 5663 5665 5668 5671 5676 5680 5685 5689 5692 5695 5697 5700 5704 5707 5710 5712 5714 5715 5718 5718 5720 5721 5721 5722 5722 5722 5721 5720 5719 5718 5717 5714 5713
5640 5641 5643 5647 5650 5653 5654 5656 5658 5659 5658 5661 5661 5663 5666 5670 5674 5677 5680 5683 5686 5689 5693 5696 5699 5701 5703 5705 5708 5708 5709 5711 5712 5713 5713 5713 5713 5712 5711 5710 5709 5708 5705 5703
5637 5639 5640 5642 5644 5646 5648 5650 5651 5653 5656 5653 5659 5656 5661 5664 5666 5669 5672 5675 5678 5681 5684 5687 5691 5693 5696 5697 5698 5700 5702 5703 5704 5704 5705 5705 5705 5704 5703 5702 5700 5698 5697 5694
5633 5635 5637 5638 5639 5640 5642 5644 5647 5649 5650 5651 5652 5655 5657 5657 5660 5664 5666 5668 5671 5673 5675 5678 5682 5685 5687 5689 5691 5693 5695 5696 5697 5697 5698 5697 5697 5695 5694 5693 5691 5690 5688 5685
5630 5631 5633 5634 5634 5635 5637 5641 5641 5643 5643 5647 5645 5653 5651 5654 5656 5659 5659 5662 5665 5667 5669 5672 5675 5678 5681 5682 5684 5686 5688 5689 5690 5691 5690 5689 5688 5687 5686 5685 5683 5681 5680 5678
5627 5628 5629 5630 5630 5630 5634 5634 5635 5638 5639 5639 5643 5645 5646 5649 5651 5652 5654 5657 5660 5662 5664 5666 5668 5671 5674 5676 5678 5680 5682 5684 5684 5683 5682 5682 5681 5681 5680 5678 5677 5675 5674 5671
5624 5624 5624 5625 5626 5628 5628 5628 5629 5631 5635 5634 5637 5639 5642 5644 5645 5648 5650 5652 5654 5657 5659 5661 5663 5666 5668 5670 5672 5674 5676 5678 5677 5677 5677 5677 5676 5675 5674 5672 5670 5669 5667 5665
5620 5621 5622 5622 5622 5623 5624 5625 5626 5627 5629 5631 5633 5634 5637 5639 5642 5645 5645 5648 5650 5652 5654 5656 5658 5660 5662 5665 5667 5669 5669 5670 5672 5673 5671 5671 5670 5668 5666 5665 5664 5663 5661 5658
5617 5617 5618 5619 5620 5621 5621 5622 5623 5625 5629 5628 5629 5630 5633 5636 5636 5639 5642 5643 5646 5648 5650 5652 5654 5655 5658 5660 5662 5663 5662 5664 5667 5667 5666 5665 5664 5663 5660 5659 5659 5657 5654 5651
5615 5615 5615 5616 5617 5619 5619 5620 5620 5622 5622 5624 5626 5627 5629 5630 5632 5634 5636 5639 5641 5644 5646 5647 5648 5650 5652 5654 5655 5657 5658 5659 5660 5659 5660 5660 5659 5656 5655 5654 5652 5650 5648 5646
5611 5612 5613 5614 5614 5615 5616 5617 5617 5619 5620 5622 5623 5625 5626 5627 5629 5630 5632 5634 5637 5639 5640 5642 5643 5645 5647 5648 5650 5651 5652 5652 5653 5654 5655 5655 5653 5651 5650 5649 5646 5644 5642 5639
5606 5606 5608 5609 5610 5610 5611 5612 5614 5615 5617 5619 5620 5621 5623 5624 5625 5627 5628 5630 5632 5633 5635 5636 5638 5639 5640 5641 5643 5644 5645 5647 5648 5648 5649 5648 5647 5646 5644 5642 5640 5638 5635 5633
5600 5601 5603 5604 5605 5604 5605 5607 5609 5610 5612 5614 5615 5617 5619 5620 5621 5622 5623 5625 5626 5627 5628 5629 5631 5632 5634 5635 5636 5638 5639 5640 5641 5642 5641 5640 5640 5639 5637 5635 5633 5630 5628 5625
5589 5590 5591 5595 5594 5595 5598 5600 5601 5603 5605 5607 5609 5611 5613 5614 5616 5617 5618 5619 5620 5621 5622 5623 5623 5625 5627 5629 5630 5632 5632 5633 5634 5634 5633 5633 5632 5631 5629 5627 5625 5622 5620 5617